Flag for Puerto Rico Weather past 2 weeks in Caguas, Puerto Rico

Now
84 °F

Scattered clouds.


Feels Like: 91 °F
Forecast: 78 / 92 °F
Wind: 21 mph from East

Location: Luis Munoz Marin

Current Time: Jul 4, 2015 at 9:53:08 AM

Latest Report: Jul 4, 2015 at 8:56 AM


Visibility: 9 mi

Pressure: 30.09 "Hg

Humidity: 72%

Dew point: 74 °F

Location of CaguasLocation

Historic Weather in Caguas — Graph

°F

Caguas temperature yesterday

Maximum temperature yesterday: 88 °F (at 10:56 AM)
Minimum temperature yesterday: 80 °F (at 12:56 AM)
Average temperature yesterday: 83 °F

Past Weeks' High & Low Weather Summary

 TemperatureHumidityPressure
High91 °F (Jun 19, 12:56 PM)97% (Jun 27, 4:56 AM)30.17 "Hg (Jun 27, 4:56 AM)
Low75 °F (Jun 22, 3:04 PM)52% (Jun 27, 1:56 PM)30.00 "Hg (Jun 19, 3:56 PM)
Average83 °F77%30.09 "Hg
* Reported Jun 19 8:56 AM — Jul 4 8:56 AM, Caguas, Weather by CustomWeather, © 2015

Note: Actual official high and low records may vary slightly from our data, if they occured in-between our weather recording intervals... More about our weather records

Advertising

Caguas weather history for previous 24 hours

 ConditionsComfort  
Time TempWeatherWind HumidityBarometerVisibility
8:56 AM
Sat, Jul 4
84 °FScattered clouds.21 mph72%30.09 "Hg9 mi
7:56 AM83 °FScattered clouds.21 mph77%30.08 "Hg9 mi
6:56 AM81 °FScattered clouds.8 mph82%30.07 "Hg9 mi
5:56 AM80 °FPassing clouds.8 mph87%30.06 "Hg9 mi
4:56 AM80 °FPassing clouds.14 mph85%30.05 "Hg10 mi
3:56 AM81 °FPartly cloudy.13 mph88%30.04 "Hg10 mi
2:56 AM81 °FPassing clouds.13 mph85%30.04 "Hg10 mi
1:56 AM81 °FPartly cloudy.17 mph85%30.05 "Hg10 mi
12:56 AM82 °FPassing clouds.16 mph79%30.06 "Hg10 mi
11:56 PM
Fri, Jul 3
82 °FPartly cloudy.16 mph79%30.08 "Hg10 mi
10:56 PM82 °FPassing clouds.17 mph79%30.08 "Hg10 mi
9:56 PM82 °FPassing clouds.17 mph79%30.07 "Hg10 mi
8:56 PM82 °FPassing clouds.18 mph77%30.07 "Hg10 mi
7:56 PM82 °FScattered clouds.17 mph79%30.05 "Hg10 mi
6:56 PM83 °FScattered clouds.16 mph77%30.04 "Hg10 mi
5:56 PM83 °FScattered clouds.17 mph77%30.03 "Hg10 mi
4:56 PM84 °FScattered clouds.21 mph74%30.02 "Hg10 mi
3:56 PM84 °FScattered clouds.18 mph74%30.02 "Hg10 mi
2:56 PM85 °FBroken clouds.20 mph75%30.03 "Hg10 mi
1:56 PM85 °FBroken clouds.22 mph72%30.05 "Hg10 mi
12:56 PM88 °FScattered clouds.21 mph63%30.06 "Hg10 mi
11:56 AM88 °FScattered clouds.20 mph63%30.08 "Hg10 mi
10:56 AM88 °FPassing clouds.18 mph61%30.09 "Hg10 mi
9:56 AM86 °FScattered clouds.21 mph63%30.09 "Hg10 mi
Weather by CustomWeather, © 2015

See weather overviewHow to use our weather pages